Location: Unspecified
(40.7945°N, 111.1337°W)
Time: 11:56:29
(UTC-06:00)

Transit 2A Rocket - Visible Passes

Search period start: 17 June 2019 00:00
Search period end: 27 June 2019 00:00
Orbit: 586 x 917 km, 66.7° (Epoch: 16 June)

Date Brightness Start Highest point End Pass type
(mag) Time Alt. Az. Time Alt. Az. Time Alt. Az.
17 Jun 5.0 21:42:16 10° NNW 21:47:31 78° WSW 21:52:13 10° SSE visible
18 Jun 7.1 22:43:56 10° WNW 22:46:52 16° WSW 22:49:40 10° SW visible
19 Jun 6.5 22:00:23 10° NW 22:04:43 28° WSW 22:08:43 10° SSW visible
22 Jun 7.1 21:36:01 10° WNW 21:39:29 19° WSW 21:42:46 10° SSW visible
